| time (UTC) | temp F | wind direction | speed knots | gust knots | rain 1hr in | rain 24hr in | rain mn in | humidity % | barometer mb |
| 20260505124528 | 38 | 203 | 0.0 | 1.7 | 0.00 | 0.00 | 0.00 | 88 | 1013.0 |
| 20260505123528 | 38 | 208 | 0.0 | 1.7 | 0.00 | 0.00 | 0.00 | 87 | 1013.1 |
| 20260505122528 | 38 | 214 | 0.0 | 0.9 | 0.00 | 0.00 | 0.00 | 87 | 1013.0 |
| 20260505121528 | 38 | 228 | 0.0 | 1.7 | 0.00 | 0.00 | 0.00 | 88 | 1013.0 |
| 20260505120529 | 38 | 0.0 | 0.0 | 0.00 | 0.00 | 0.00 | 88 | 1012.9 | |
| 20260505115529 | 38 | 0.0 | 0.0 | 0.00 | 0.00 | 0.00 | 88 | 1013.0 | |
| 20260505114528 | 38 | 0.0 | 0.0 | 0.00 | 0.00 | 0.00 | 88 | 1012.9 | |
| 20260505113549 | 38 | 0.0 | 0.0 | 0.00 | 0.00 | 0.00 | 88 | 1012.8 | |
| 20260505112529 | 38 | 0.0 | 0.0 | 0.00 | 0.00 | 0.00 | 87 | 1012.8 | |
| 20260505111529 | 38 | 0.0 | 0.0 | 0.00 | 0.00 | 0.00 | 87 | 1012.9 | |
| 20260505110530 | 38 | 131 | 0.0 | 1.7 | 0.00 | 0.00 | 0.00 | 87 | 1013.0 |
| 20260505101516 | 39 | 46 | 0.9 | 3.5 | 0.00 | 0.00 | 0.00 | 86 | 1012.9 |
| 20260505100522 | 39 | 41 | 1.7 | 5.2 | 0.00 | 0.00 | 0.00 | 86 | 1012.8 |
| 20260505095531 | 39 | 30 | 0.9 | 2.6 | 0.00 | 0.00 | 0.00 | 87 | 1012.8 |
| 20260505094532 | 39 | 46 | 2.6 | 4.3 | 0.00 | 0.00 | 0.00 | 86 | 1012.9 |
| 20260505093531 | 39 | 48 | 1.7 | 2.6 | 0.00 | 0.00 | 0.00 | 86 | 1012.9 |
| 20260505092532 | 39 | 41 | 0.9 | 2.6 | 0.00 | 0.00 | 0.00 | 87 | 1013.0 |
| 20260505091517 | 39 | 40 | 1.7 | 5.2 | 0.00 | 0.00 | 0.00 | 85 | 1013.0 |
| 20260505090517 | 40 | 47 | 1.7 | 4.3 | 0.00 | 0.00 | 0.00 | 85 | 1012.9 |
| 20260505085517 | 40 | 44 | 1.7 | 4.3 | 0.00 | 0.00 | 0.00 | 85 | 1012.9 |
| 20260505084517 | 41 | 53 | 0.9 | 4.3 | 0.00 | 0.00 | 0.00 | 84 | 1013.0 |
| 20260505083538 | 42 | 56 | 1.7 | 4.3 | 0.00 | 0.00 | 0.00 | 80 | 1013.4 |
| 20260505082533 | 43 | 62 | 1.7 | 3.5 | 0.00 | 0.00 | 0.00 | 75 | 1013.9 |
| 20260505081518 | 43 | 54 | 0.9 | 3.5 | 0.00 | 0.00 | 0.00 | 73 | 1014.0 |
| 20260505080518 | 43 | 89 | 0.9 | 2.6 | 0.00 | 0.00 | 0.00 | 72 | 1014.0 |
| 20260505075517 | 43 | 39 | 2.6 | 6.1 | 0.00 | 0.00 | 0.00 | 66 | 1014.1 |
| 20260505074518 | 43 | 32 | 2.6 | 6.1 | 0.00 | 0.00 | 0.00 | 65 | 1014.2 |
| 20260505073518 | 43 | 50 | 3.5 | 7.0 | 0.00 | 0.00 | 0.00 | 64 | 1014.3 |
| 20260505072518 | 43 | 41 | 2.6 | 6.1 | 0.00 | 0.00 | 0.00 | 64 | 1014.2 |
| 20260505071519 | 43 | 42 | 2.6 | 6.1 | 0.00 | 0.00 | 0.00 | 64 | 1014.2 |
| 20260505070519 | 43 | 50 | 3.5 | 7.8 | 0.00 | 0.00 | 0.00 | 64 | 1014.1 |
| 20260505065519 | 44 | 42 | 3.5 | 6.1 | 0.00 | 0.00 | 0.00 | 65 | 1014.0 |
| 20260505064519 | 44 | 57 | 2.6 | 5.2 | 0.00 | 0.00 | 0.00 | 65 | 1013.9 |
| 20260505063539 | 44 | 42 | 2.6 | 7.0 | 0.00 | 0.00 | 0.00 | 65 | 1013.8 |
| 20260505062520 | 44 | 41 | 3.5 | 7.8 | 0.00 | 0.00 | 0.00 | 66 | 1013.8 |
| 20260505061517 | 44 | 46 | 4.3 | 7.8 | 0.00 | 0.00 | 0.00 | 65 | 1013.8 |
| 20260505060517 | 44 | 45 | 2.6 | 5.2 | 0.00 | 0.00 | 0.00 | 65 | 1013.7 |
| 20260505055518 | 45 | 28 | 2.6 | 7.0 | 0.00 | 0.00 | 0.00 | 64 | 1013.8 |
| 20260505054518 | 45 | 45 | 3.5 | 7.8 | 0.00 | 0.00 | 0.00 | 62 | 1013.7 |
| 20260505053538 | 46 | 43 | 3.5 | 7.0 | 0.00 | 0.00 | 0.00 | 60 | 1013.7 |
| 20260505052518 | 46 | 53 | 3.5 | 8.7 | 0.00 | 0.00 | 0.00 | 58 | 1013.7 |
| 20260505051518 | 47 | 29 | 2.6 | 6.1 | 0.00 | 0.00 | 0.00 | 57 | 1013.5 |
| 20260505050518 | 48 | 47 | 3.5 | 7.0 | 0.00 | 0.00 | 0.00 | 56 | 1013.4 |
| 20260505041519 | 50 | 60 | 1.7 | 6.1 | 0.00 | 0.00 | 0.00 | 46 | 1012.5 |
| 20260505040519 | 50 | 49 | 3.5 | 7.0 | 0.00 | 0.00 | 0.00 | 45 | 1012.3 |
| 20260505035537 | 51 | 48 | 2.6 | 7.0 | 0.00 | 0.00 | 0.00 | 45 | 1012.1 |
| 20260505034517 | 51 | 42 | 3.5 | 10.4 | 0.00 | 0.00 | 0.00 | 44 | 1012.0 |
| 20260505033517 | 51 | 39 | 3.5 | 9.6 | 0.00 | 0.00 | 0.00 | 44 | 1011.8 |
| 20260505032520 | 51 | 42 | 4.3 | 9.6 | 0.00 | 0.00 | 0.00 | 42 | 1011.6 |
| 20260505031517 | 52 | 47 | 4.3 | 10.4 | 0.00 | 0.00 | 0.00 | 42 | 1011.3 |
| 20260505030517 | 52 | 38 | 4.3 | 9.6 | 0.00 | 0.00 | 0.00 | 41 | 1010.8 |
| 20260505025517 | 53 | 35 | 3.5 | 7.8 | 0.00 | 0.00 | 0.00 | 41 | 1010.6 |
| 20260505024518 | 54 | 33 | 3.5 | 7.8 | 0.00 | 0.00 | 0.00 | 40 | 1010.3 |
| 20260505023518 | 54 | 36 | 3.5 | 7.0 | 0.00 | 0.00 | 0.00 | 40 | 1009.9 |
| 20260505022518 | 55 | 28 | 2.6 | 7.0 | 0.00 | 0.00 | 0.00 | 40 | 1009.8 |
| 20260505021518 | 56 | 42 | 4.3 | 8.7 | 0.00 | 0.00 | 0.00 | 40 | 1009.5 |
| 20260505020519 | 56 | 34 | 3.5 | 7.8 | 0.00 | 0.00 | 0.00 | 39 | 1009.2 |
| 20260505015539 | 57 | 29 | 2.6 | 7.0 | 0.00 | 0.00 | 0.00 | 39 | 1009.2 |
| 20260505014519 | 57 | 40 | 4.3 | 10.4 | 0.00 | 0.00 | 0.00 | 38 | 1009.1 |
| 20260505013519 | 57 | 45 | 4.3 | 8.7 | 0.00 | 0.00 | 0.00 | 38 | 1008.9 |
| 20260505012516 | 57 | 49 | 5.2 | 13.9 | 0.00 | 0.00 | 0.00 | 38 | 1008.9 |
| 20260505011517 | 57 | 38 | 3.5 | 7.8 | 0.00 | 0.00 | 0.00 | 38 | 1009.0 |
| 20260505010540 | 58 | 45 | 5.2 | 8.7 | 0.00 | 0.00 | 0.00 | 37 | 1008.9 |
| 20260505005520 | 58 | 34 | 4.3 | 10.4 | 0.00 | 0.00 | 0.00 | 37 | 1008.7 |
| 20260505004517 | 60 | 25 | 4.3 | 13.0 | 0.00 | 0.00 | 0.00 | 35 | 1008.5 |
| 20260505003517 | 61 | 26 | 4.3 | 9.6 | 0.00 | 0.00 | 0.00 | 35 | 1008.5 |
| 20260505002517 | 62 | 36 | 4.3 | 9.6 | 0.00 | 0.00 | 0.00 | 34 | 1008.1 |
| 20260505001518 | 63 | 14 | 3.5 | 7.0 | 0.00 | 0.00 | 0.00 | 32 | 1008.1 |
| 20260505000518 | 63 | 40 | 3.5 | 7.8 | 0.00 | 0.00 | 0.00 | 32 | 1008.0 |
| 20260504235518 | 63 | 2 | 3.5 | 8.7 | 0.00 | 0.00 | 0.00 | 32 | 1008.0 |
| 20260504234518 | 63 | 15 | 3.5 | 7.0 | 0.00 | 0.00 | 0.00 | 32 | 1007.8 |
| 20260504233518 | 64 | 36 | 4.3 | 9.6 | 0.00 | 0.00 | 0.00 | 32 | 1007.7 |
| 20260504232518 | 65 | 1 | 3.5 | 9.6 | 0.00 | 0.00 | 0.00 | 31 | 1007.4 |
| 20260504231539 | 65 | 27 | 4.3 | 11.3 | 0.00 | 0.00 | 0.00 | 31 | 1007.4 |
| 20260504230516 | 66 | 356 | 4.3 | 9.6 | 0.00 | 0.00 | 0.00 | 31 | 1007.3 |
| 20260504225519 | 66 | 11 | 3.5 | 7.8 | 0.00 | 0.00 | 0.00 | 29 | 1007.1 |
| 20260504224519 | 64 | 38 | 4.3 | 12.2 | 0.00 | 0.00 | 0.00 | 31 | 1007.0 |
| 20260504223519 | 65 | 31 | 4.3 | 8.7 | 0.00 | 0.00 | 0.00 | 31 | 1007.1 |
| 20260504222517 | 67 | 17 | 2.6 | 8.7 | 0.00 | 0.00 | 0.00 | 29 | 1007.1 |
| 20260504221517 | 66 | 350 | 4.3 | 8.7 | 0.00 | 0.00 | 0.00 | 29 | 1007.3 |
| 20260504220537 | 67 | 337 | 4.3 | 8.7 | 0.00 | 0.00 | 0.00 | 29 | 1007.3 |
| 20260504215520 | 67 | 30 | 2.6 | 7.8 | 0.00 | 0.00 | 0.00 | 29 | 1007.4 |
| 20260504214520 | 66 | 39 | 3.5 | 8.7 | 0.00 | 0.00 | 0.00 | 30 | 1007.5 |
| 20260504213518 | 66 | 52 | 4.3 | 9.6 | 0.00 | 0.00 | 0.00 | 29 | 1007.7 |
| 20260504212518 | 66 | 45 | 4.3 | 10.4 | 0.00 | 0.00 | 0.00 | 30 | 1007.8 |
| 20260504211518 | 66 | 40 | 5.2 | 10.4 | 0.00 | 0.00 | 0.00 | 29 | 1007.8 |
| 20260504210538 | 67 | 34 | 4.3 | 9.6 | 0.00 | 0.00 | 0.00 | 29 | 1007.7 |
| 20260504205533 | 68 | 59 | 3.5 | 7.0 | 0.00 | 0.00 | 0.00 | 28 | 1007.6 |
| 20260504204538 | 67 | 39 | 3.5 | 7.8 | 0.00 | 0.00 | 0.00 | 28 | 1007.8 |
| 20260504203519 | 66 | 43 | 4.3 | 8.7 | 0.00 | 0.00 | 0.00 | 29 | 1007.9 |
| 20260504202522 | 66 | 35 | 4.3 | 7.8 | 0.00 | 0.00 | 0.00 | 29 | 1008.2 |
| 20260504201519 | 67 | 9 | 4.3 | 9.6 | 0.00 | 0.00 | 0.00 | 28 | 1008.2 |
| 20260504200520 | 66 | 53 | 3.5 | 10.4 | 0.00 | 0.00 | 0.00 | 29 | 1008.2 |
| 20260504195516 | 66 | 60 | 4.3 | 9.6 | 0.00 | 0.00 | 0.00 | 29 | 1008.2 |
| 20260504194517 | 65 | 46 | 4.3 | 10.4 | 0.00 | 0.00 | 0.00 | 30 | 1008.4 |
| 20260504193540 | 66 | 42 | 4.3 | 10.4 | 0.00 | 0.00 | 0.00 | 29 | 1008.4 |
| 20260504192520 | 65 | 52 | 4.3 | 10.4 | 0.00 | 0.00 | 0.00 | 30 | 1008.5 |
| 20260504191520 | 65 | 80 | 3.5 | 9.6 | 0.00 | 0.00 | 0.00 | 30 | 1008.5 |
| 20260504190517 | 65 | 50 | 3.5 | 7.0 | 0.00 | 0.00 | 0.00 | 30 | 1008.6 |
| 20260504185517 | 65 | 54 | 5.2 | 11.3 | 0.00 | 0.00 | 0.00 | 30 | 1009.0 |
| 20260504184518 | 65 | 38 | 3.5 | 7.8 | 0.00 | 0.00 | 0.00 | 30 | 1009.3 |
| 20260504183518 | 64 | 68 | 3.5 | 8.7 | 0.00 | 0.00 | 0.00 | 30 | 1009.3 |
| 20260504182521 | 64 | 52 | 3.5 | 9.6 | 0.00 | 0.00 | 0.00 | 31 | 1009.3 |
| 20260504181539 | 64 | 58 | 5.2 | 10.4 | 0.00 | 0.00 | 0.00 | 31 | 1009.1 |
| 20260504180518 | 64 | 50 | 3.5 | 9.6 | 0.00 | 0.00 | 0.00 | 31 | 1009.5 |
| 20260504175518 | 63 | 47 | 5.2 | 9.6 | 0.00 | 0.00 | 0.00 | 31 | 1009.6 |
| 20260504174519 | 61 | 65 | 3.5 | 7.8 | 0.00 | 0.00 | 0.00 | 33 | 1009.6 |
| 20260504173519 | 62 | 78 | 3.5 | 8.7 | 0.00 | 0.00 | 0.00 | 32 | 1009.6 |
| 20260504172525 | 62 | 87 | 3.5 | 7.0 | 0.00 | 0.00 | 0.00 | 31 | 1009.5 |
| 20260504171519 | 61 | 60 | 3.5 | 6.1 | 0.00 | 0.00 | 0.00 | 32 | 1009.6 |
| 20260504170540 | 60 | 41 | 6.1 | 10.4 | 0.00 | 0.00 | 0.00 | 35 | 1009.7 |
| 20260504150518 | 54 | 37 | 1.7 | 6.1 | 0.00 | 0.00 | 0.00 | 43 | 1009.7 |
| 20260504140523 | 44 | 121 | 0.0 | 1.7 | 0.00 | 0.00 | 0.00 | 60 | 1010.0 |